Location: Newark
(38.0892°N, 27.7378°E)
Time: 00:06:57
(UTC+00:00)

N. Korean satellite - Pass Details

Date: 13 December 2019
Orbit: 454 x 507 km, 97.2° (Epoch: 21 January)

Event Time Altitude Azimuth Distance (km) Brightness Sun altitude
Rises 15:51:51 0° 192° (SSW) 2,597 10.7 -11.9°
Reaches altitude 10° 15:54:10 10° 205° (SSW) 1,715 10.0 -12.4°
Maximum altitude 15:57:20 26° 264° (W) 1,013 9.1 -12.9°
Drops below altitude 10° 16:00:29 10° 323° (NW) 1,715 9.6 -13.5°
Sets 16:02:49 0° 336° (NNW) 2,597 10.3 -14.0°
